Regional Weather Roundup
Issued by NWS Little Rock, AR

Home | Current Version | Previous Version | Graphics & Text | Print | Product List | Glossary On
Versions: 1 2 3 4 5 6 7 8 9 10 11 12 13 14 15 16 17 18 19 20 21 22 23 24 25 26 27 28 29 30 31 32 33 34 35 36 37 38 39 40 41 42 43 44 45 46 47 48 49 50
000
ASUS44 KLZK 011205
RWRLZK

WEATHER ROUNDUP FOR ARKANSAS
NATIONAL WEATHER SERVICE LITTLE ROCK AR
600 AM CST SUN MAR 01 2015

NOTE: "FAIR" INDICATES FEW OR NO CLOUDS BELOW 12,000 FEET WITH NO
SIGNIFICANT WEATHER AND/OR OBSTRUCTIONS TO VISIBILITY.

ARZ001-003-010-029-011300-
NORTHWEST ARKANSAS

CITY           SKY/WX    TMP DP  RH WIND       PRES   REMARKS
FAYETTEVILLE   CLOUDY    31  31 100 CALM      30.31F FOG
6HR MIN TEMP:  31; 6HR MAX TEMP:  31; 6HR PCP:  0.05;

FORT SMITH     CLOUDY    32  31  96 NE6       30.35S FOG     WCI  26
6HR MIN TEMP:  32; 6HR MAX TEMP:  32; 6HR PCP:  0.12;

HARRISON       CLOUDY    30  30 100 CALM      30.31R FOG
6HR MIN TEMP:  26; 6HR MAX TEMP:  30; 6HR PCP:  0.18;

BENTONVILLE    CLOUDY    30  27  86 CALM      30.33R
6HR MIN TEMP:  28; 6HR MAX TEMP:  30; 6HR PCP:  0.02;

ROGERS         CLOUDY    28  28 100 NW7       30.32S FOG     WCI  21
6HR MIN TEMP:  28; 6HR MAX TEMP:  30; 6HR PCP:  0.08;

SILOAM SPGS    CLOUDY    30  25  80 CALM      30.34R
6HR MIN TEMP:  30; 6HR MAX TEMP:  30; 6HR PCP:  0.03;

HIGHFILL       CLOUDY    30  28  92 N9        30.32R FOG     WCI  22
6HR MIN TEMP:  30; 6HR MAX TEMP:  31; 6HR PCP: TRACE;

SPRINGDALE     FRZ DRZL  32  30  93 NW5       30.32  FOG     WCI  27
$$

ARZ004-005-016-011300-
NORTH CENTRAL ARKANSAS

CITY           SKY/WX    TMP DP  RH WIND       PRES   REMARKS
BATESVILLE     CLOUDY    30  27  86 CALM      30.37F
6HR MIN TEMP:  28; 6HR MAX TEMP:  30; 6HR PCP:  0.02;

FLIPPIN        CLOUDY    30  27  86 CALM      30.34R
6HR MIN TEMP:  27; 6HR MAX TEMP:  30; 6HR PCP:  0.23;

MTN HOME       FRZ RAIN  30  29  96 CALM      30.33S FOG
6HR MIN TEMP:  27; 6HR MAX TEMP:  30;

$$

ARZ040-041-011300-
WEST CENTRAL ARKANSAS

CITY           SKY/WX    TMP DP  RH WIND       PRES   REMARKS
MENA           CLOUDY    34  34 100 CALM      30.33R
MOUNT IDA      MIX PCPN  33  32  96 CALM      30.32S FOG
6HR MIN TEMP:  33; 6HR MAX TEMP:  33; 6HR PCP:  0.17;

$$

ARZ009-017-025-026-028-011300-
NORTHEAST ARKANSAS

CITY           SKY/WX    TMP DP  RH WIND       PRES   REMARKS
CORNING        LGT RAIN  32  28  86 CALM      30.38F
JONESBORO      CLOUDY    32  27  81 CALM      30.38R
6HR MIN TEMP:  30; 6HR MAX TEMP:  32; 6HR PCP:  0.01;

NEWPORT        FLURRIES  31  29  92 NW5       30.41R WCI  26
6HR MIN TEMP:  30; 6HR MAX TEMP:  31; 6HR PCP:  0.01;

WALNUT RIDGE   CLOUDY    30  27  86 NE5       30.37F WCI  25
6HR MIN TEMP:  30; 6HR MAX TEMP:  30; 6HR PCP:  0.01;

BLYTHEVILLE    LGT RAIN  33  29  85 N5        30.37R WCI  29
6HR MIN TEMP:  33; 6HR MAX TEMP:  34; 6HR PCP: TRACE;

$$

ARZ022-023-033-042-044-011300-
CENTRAL ARKANSAS

CITY           SKY/WX    TMP DP  RH WIND       PRES   REMARKS
LITTLE ROCK    CLOUDY    34  29  82 N5        30.39R FOG     WCI  30
6HR MIN TEMP:  32; 6HR MAX TEMP:  34; 6HR PCP:  0.03;

N LITTLE ROCK    N/A     32  32 100 N5        30.39R WCI  27
6HR MIN TEMP:  31; 6HR MAX TEMP:  32;

SEARCY         MIX PCPN  32  29  88 NE7       30.38F WCI  26
6HR MIN TEMP:  30; 6HR MAX TEMP:  32; 6HR PCP:  0.02;

HOT SPRINGS    CLOUDY    34  31  88 CALM      30.35F
6HR MIN TEMP:  33; 6HR MAX TEMP:  34; 6HR PCP: TRACE;

RUSSELLVILLE   CLOUDY    33  31  92 S3        30.35S FOG
6HR MIN TEMP:  32; 6HR MAX TEMP:  33;

CLINTON        CLOUDY    32  32 100 CALM      30.36F FOG
$$

ARZ036-011300-
EAST ARKANSAS

CITY           SKY/WX    TMP DP  RH WIND       PRES   REMARKS
WEST MEMPHIS   LGT RAIN  34  30  85 NW5       30.36R WCI  30
6HR MIN TEMP:  33; 6HR MAX TEMP:  34; 6HR PCP: TRACE;

$$

ARZ050-053-066-070-073-011300-
SOUTHWEST ARKANSAS

CITY           SKY/WX    TMP DP  RH WIND       PRES   REMARKS
ARKADELPHIA    LGT RAIN  34  33  96 NE7       30.36F FOG     WCI  28
6HR MIN TEMP:  34; 6HR MAX TEMP:  36; 6HR PCP:  0.04;

CAMDEN         CLOUDY    34  30  86 MISG      30.34F
TEXARKANA      LGT RAIN  34  33  96 NE9       30.31S FOG     WCI  27
6HR MIN TEMP:  34; 6HR MAX TEMP:  36; 6HR PCP:  0.17;

EL DORADO      LGT RAIN  35  33  92 VRB6      30.31F WCI  30
6HR MIN TEMP:  35; 6HR MAX TEMP:  39; 6HR PCP: TRACE;

DE QUEEN       CLOUDY    37  36  96 E3        30.30F FOG
6HR MIN TEMP:  35; 6HR MAX TEMP:  37; 6HR PCP: TRACE;

$$

ARZ056-057-069-011300-
SOUTHEAST ARKANSAS

CITY           SKY/WX    TMP DP  RH WIND       PRES   REMARKS
PINE BLUFF     MIX PCPN  32  28  85 N12       30.37S FOG     WCI  23
6HR MIN TEMP:  32; 6HR MAX TEMP:  33; 6HR PCP:  0.05;

STUTTGART      CLOUDY    32  27  80 N12       30.38R WCI  23
6HR MIN TEMP:  32; 6HR MAX TEMP:  34;

MONTICELLO     LGT RAIN  34  31  88 VRB3      30.35R FOG
6HR MIN TEMP:  34; 6HR MAX TEMP:  38; 6HR PCP: TRACE;


$$




USA.gov is the U.S. government's official web portal to all federal, state and local government web resources and services.